STARLINK-32034, 60297

Orbit data source: Space-Track

STARLINK-32034, 60297 is a payload satellite owned by SpaceX/Seattle (US) in LEO that was launched on Sun, 28 Jul 2024 UTC via an FALCON 9 launch vehicle from the Air Force Eastern Test Range (AFETR). Payload-class satellites include a variety of spacecraft equipped with specific instruments for various scientific and technological missions. These include communications satellites like Starlink; space stations such as the ISS; scientific satellites like the Hubble; Earth observation satellites from companies like Planet Labs, Umbra, and HawkEye 360; GPS; miniature CubeSats for education and research; and military/defense satellites.

Loading next visibility...
Identifier
60297, 2024-132V
Orbit
LEO
Last TLE update
14 hours ago
Origin
Manufacturer
SpaceX/Seattle
Mission
Operational spacecraft
Bus & Motor
STARLINK V2M, Unknown motor
Mass
730 kg wet, ~700 kg dry
Launch date (UTC)
2024-07-28 (11 months ago)
Launch vehicle
FALCON 9
Launch site
Air Force Eastern Test Range (AFETR)
Object type
Payload
Rocket body
Debris
Shape & HBR
Unknown
Radar Cross Section
Large (>1 m²)

Expand to show TLE details & history

TLE from 14 hours ago
0 STARLINK-32034
1 60297U 24132V   25186.17563404 -.00000637  00000-0 -93926-5 0  9990
2 60297  53.1596 122.1965 0001240  85.3690 274.7452 15.30196076 53668
Epoch: 2025-07-05T04:12Z
TLE epoch observation values (Epoch: 2025-07-05T04:12:54.781Z)
Latitude
-0.00003°
Longitude
135.55078°
Altitude
476.056 km
Speed
7.629 km/s
True Right ascension
08h 08m 47s
True Declination
0° 00' 00"
Sunlit
Object was in daylight at epoch
Visualization orbit readout
Latitude
38.98076°
Longitude
169.85533°
Altitude
477.912 km
Speed
7.632 km/s
Apparent Right ascension
14h 10m 03s
Apparent Declination
2° 28' 56"
Sunlit
Object is in daylight
Visualization observer readout
Local Sidereal Time
06:28:23
Azimuth
71.135° E
Elevation
-17.522°
Doppler factor
1
Orbital elements
Apogee altitude
476.333 km
Perigee altitude
474.633 km
Semi-major axis
6,853.62 km
Eccentricity
0.00012
Inclination
53.1596°
RAAN
122.1965°
Arg. of periapsis
85.369°
True anomaly
Unknown
Mean anomaly
274.7452°
Eccentric anomaly
Unknown
Mean motion
3.82528 °/min
Orbital period
94.11 mins
BSTAR
-0.0000093926
Loading maneuver chart data...
Loading SW <> Apogee altitude chart data...
Loading historical data...
Loading historical data...
Loading historical data...
Loading historical data...
Loading historical data...
Loading historical data...
Loading historical data...

STARLINK-32034 Visibility forecast

Observer location: undefined°, undefined°

Span
Click to sort rows by Start time (UTC) header in descending order
Start Az.
Max El. time (UTC)
Max El. Az.
Max El.
End time (UTC)
End Az.
5 mins2025-07-05 21:36:50.850Z184.22° SSW2025-07-05 21:39:50.850Z118.942° SE23.471°2025-07-05 21:41:50.850Z79.572° E
5 mins2025-07-05 23:14:50.850Z265.993° W2025-07-05 23:16:50.850Z311.222° NW30.555°2025-07-05 23:19:50.850Z30.847° NE
4 mins2025-07-06 04:12:50.850Z353.474° N2025-07-06 04:13:50.850Z19.667° NNE24.82°2025-07-06 04:16:50.850Z85.609° E
5 mins2025-07-06 05:49:50.850Z288.043° WNW2025-07-06 05:51:50.850Z239.526° WSW32.331°2025-07-06 05:54:50.850Z160.576° S
|